Find Local Weather

World > North America > United States > Florida

Gainesville, Florida Regional Weather

Lat: 29.67N, Lon: 82.34W
Wx Zone: FLZ036
Warning FLW WEATHER ALERT - HARD FROST ADVISORY (More Info. Click Here) Warning
Feedback
Expires:201812111700;;637082
ASUS42 KTBW 111617
RWRFL 
FLORIDA REGIONAL WEATHER ROUNDUP
NATIONAL WEATHER SERVICE TAMPA BAY RUSKIN FL
1100 AM EST TUE DEC 11 2018

NOTE: "FAIR" INDICATES FEW OR NO CLOUDS BELOW 12,000 FEET WITH NO
SIGNIFICANT WEATHER AND/OR OBSTRUCTIONS TO VISIBILITY.


FLZ011-016>038-118-127-128-134-139-239-111700-
NORTH FLORIDA
  
CITY           SKY/WX    TMP DP  RH WIND       PRES   REMARKS
MARIANNA       CLOUDY    46  39  76 N8        30.39R WCI  42          
TALLAHASSEE    CLOUDY    47  39  74 N9        30.37F WCI  43          
PERRY          CLOUDY    48  40  73 N9        30.38R WCI  44          
LIVE OAK       CLOUDY    48  41  76 NW7       30.35S                  
CROSS CITY     CLOUDY    49  40  71 N8        30.37                   
LAKE CITY      PTSUNNY   46  37  71 N9        30.34S WCI  42          
GAINESVILLE    CLOUDY    49  41  74 NW7       30.36R                  
WILLISTON        N/A    N/A N/A N/A MISG        N/A                   
MAYPORT NAS    PTSUNNY   49  40  71 NW9       30.31S WCI  45          
JACKSONVILLE   FAIR      48  38  68 N12       30.31S WCI  43          
JAX NAS        PTSUNNY   50  40  68 NW12      30.32S                  
JAX CECIL      PTSUNNY   52  41  66 NW12      30.33R                  
FERNANDINA BEA PTSUNNY   48  39  71 NW12      30.31S WCI  43          
ST AUGUSTINE   PTSUNNY   49  39  68 NW15G23   30.32S WCI  43          
PALM COAST     PTSUNNY   46  41  81 NW9       30.32R WCI  42          

STATION/POSITION SKY/WX   TEMP    WIND        PRES    WAVE   SWELL
                          AIR SEA DIR/SP/G            HT/PER HT/PER
                          (F)     (DEG/KT/KT) (MB)    (FT/S) (FT/S)
SHELL POINT      NOT AVBL
KEATON BEACH               48     360/  7/ 10 1028.6R
CEDAR KEY                  50     320/  6/ 11 1027.9F
FERNANDINA                 47 58  310/  6/ 12 1027.3F
30.7N   81.3W                 59                N/A     3/13   2/13
MAYPORT                    46 59  330/ 12/ 14 1026.7R
31.4N   80.9W              46 60  320/ 17/ 21 1025.3F   5/12   3/12
ST AUGUSTINE               47 60  330/ 11/ 15 1026.4R

$$

SKY/WX - Weather  TMP - Temperature  DP - Dew Point  RH - Relative Humidity
WIND - Wind Direction/Speed PRES - Barometric Pressure